Bob Reall Invitational 2016

Lancaster, OH
Hosted by Lancaster

Bob Reall Invitational 2016 vs Bob Reall Invitational 2014

Aggregate Data Points
Difference This Meet That Meet
Overall Athletes +87 1549 1462
Overall Average -42.57 22:58.50 23:41.07
1st-10th Place -22.00 16:15.68 16:37.68
1st-25th Place -13.27 16:39.22 16:52.49
1st-50th Place -12.37 16:56.89 17:09.26
1st-100th Place -17.08 17:19.27 17:36.34
Common Athletes -- -- 258
Ran Faster 168 213 45
Ran Season Best 9 10 1
Average Time -1:31.18 21:54.73 23:25.91
Median Time -1:36.30 21:07.30 22:43.60
Middle 80% Times -1:32.49 21:32.30 23:04.79
Top 10% Times -1:06.24 17:11.12 18:17.36
Top 25% Times -1:16.08 17:55.65 19:11.73
Top 50% Times -1:21.44 18:54.96 20:16.39
Bottom 50% Times -1:40.92 24:54.51 26:35.43
Bottom 25% Times -1:38.88 27:11.88 28:50.76
Bottom 10% Times -1:46.43 29:48.84 31:35.27
Average Difference -1:31.18 -- --
Median Difference -1:20.10 -- --
Middle 80% Difference -1:28.35 -- --
Top 10% Difference -49.31 -- --
Top 50% Difference -1:07.69 -- --
Top 25% Difference -59.42 -- --
Top 50% Difference -1:07.69 -- --
Bottom 50% Difference -1:54.66 -- --
Bottom 25% Difference -2:08.52 -- --
Bottom 10% Difference -2:41.75 -- --

Performances of Common Athletes
Athlete Team Difference This Meet That Meet
Ryan Martin Newark -8:25.30 16:15.80 24:41.10
Zach Whipple Lancaster -1:06.90 16:16.20 17:23.10
Jacob Bishop Martins Ferry -33.00 16:23.30 16:56.30
Jacob Todd Newark -1:46.50 16:33.50 18:20.00
David Drushal Heb. Lakewood -1:47.80 16:38.00 18:25.80
Austin Hallabrin Mount Gilead +13.00 16:55.10 16:42.10
Kiefer Mosmeier Logan Elm -1:38.70 16:48.70 18:27.40
Logan Meyer Mount Vernon -1:12.70 16:58.20 18:10.90
Keegan Znosko Newark -3:13.00 16:58.50 20:11.50
Scott Barker Parkersburg -25.20 17:07.20 17:32.40
Matthew Agosta Logan Elm -1:11.90 17:08.00 18:19.90
Conner Wolfe Rac. Southern -2:44.90 17:09.60 19:54.50
Will Lemasters Parkersburg -1:26.20 17:13.50 18:39.70
Brayden Ray Parkersburg -1:09.20 17:15.70 18:24.90
Jacob Gero Watkins Memorial -1:23.60 17:20.10 18:43.70
Nick Kuraly Watterson -1:02.90 17:21.00 18:23.90
Kane Breuer New Albany -3:21.00 17:26.90 20:47.90
Bryon Lowry Logan -1:34.70 17:29.70 19:04.40
Bruce Davisson Newark -3:41.10 17:34.20 21:15.30
Nick Weiss Mount Gilead -2:04.20 17:35.10 19:39.30
Reed Wyant New Albany -2:46.20 17:35.70 20:21.90
Peter Buckley Athens -1:07.60 17:37.00 18:44.60
Parker Kim New Albany -56.40 17:41.40 18:37.80
Austin Ebbrecht Wester. North -1:43.60 17:45.00 19:28.60
Ryan Bachman Central Crossing -2.50 17:48.90 17:51.40
Brad Day Watkins Memorial -2:12.30 17:52.80 20:05.10
Nick Haley Watterson -1:05.90 17:54.70 19:00.60
Jake Sites Newark -3:20.50 17:55.60 21:16.10
Marcus Clark Martins Ferry -1:55.80 17:57.20 19:53.00
Clayton Lunsford Lancaster -1:15.00 18:00.70 19:15.70
Nick Devore Wester. North -54.20 18:02.00 18:56.20
Andrew Graves Zane Trace -1:54.50 18:02.30 19:56.80
Terrell Tuttle Martins Ferry +14.80 18:18.50 18:03.70
Allen Sherrick Lancaster -6:51.10 18:03.80 24:54.90
Chandler Stringer New Albany +2.70 18:09.70 18:07.00
Joel Larson Parkersburg -0.30 18:07.60 18:07.90
Kyle Buerkle Central Crossing -6:35.80 18:09.40 24:45.20
Beau Boyden Fisher Catholic -1:18.40 18:09.90 19:28.30
Justin Nauman Lancaster -1:32.20 18:10.20 19:42.40
Zac Dalton Lancaster -1:12.70 18:12.30 19:25.00
Andrew Miser Parkersburg -1:09.40 18:15.10 19:24.50
Patrick Monnin Watterson -2:25.20 18:16.20 20:41.40
Jed Shumaker Sheridan -1:13.80 18:16.20 19:30.00
Austin Taylor Piketon +15.10 18:35.00 18:19.90
Gabe Glenn New Albany -1:54.80 18:20.60 20:15.40
Luke Hoover Lan. Fair Chr. -27.90 18:22.60 18:50.50
Collin Doughty Marietta -53.50 18:26.80 19:20.30
Kenneth Polta New Albany -1:27.70 18:28.20 19:55.90
Noah Voorhies Wester. North -1:41.90 18:31.10 20:13.00
Victor Ziegert Granville +1:09.20 19:42.60 18:33.40
Lance Cahill London -2:52.20 18:35.50 21:27.70
Ian Smith Sheridan -1:49.10 18:39.40 20:28.50
Devin Ours Parkersburg -3:47.70 18:40.40 22:28.10
Garrett Lafferty New Albany -2:48.20 18:40.50 21:28.70
David Curren New Albany -1:01.40 18:41.10 19:42.50
Nate Matthews Marietta -1:00.10 18:41.20 19:41.30
Jacob Nichols Piketon -1:55.90 18:42.70 20:38.60
Gabriel Levert Hartley -1:15.50 18:43.50 19:59.00
Jed Mcgirr Warren -42.60 18:44.30 19:26.90
Zac Banks St. Clairsville -51.50 18:44.40 19:35.90
Issac Stemple Claymont -1:16.30 18:45.00 20:01.30
Kevin Remiker New Albany -2:52.70 18:45.50 21:38.20
Cole Parker Newark -5:22.50 18:45.60 24:08.10
Riley Kennelly Westfall -50.00 18:48.20 19:38.20
Luke Kumler Lan. Fair Chr. +1.40 18:52.90 18:51.50
Cody Feisel Lancaster -2:50.80 18:52.30 21:43.10
David Daw Watkins Memorial -2:04.10 18:53.30 20:57.40
Jake Ferenchak Central Crossing +1:27.00 20:23.80 18:56.80
Sam Hayes Vinton County -1:40.60 18:59.70 20:40.30
Caleb Young Marietta -2:51.50 19:00.60 21:52.10
Mike Grunenwald Watterson -1:21.20 19:02.10 20:23.30
Jeremy McIntire Watkins Memorial +21.30 19:28.20 19:06.90
Nathan Hall Lancaster -1:00.30 19:08.20 20:08.50
Jacob Massa Granville -3:13.80 19:09.10 22:22.90
Chase Rawlins Hartley -1:52.10 19:11.00 21:03.10
Evan Franke Lancaster -2:08.20 19:16.10 21:24.30
Max Sauer Hartley -1:28.90 19:17.00 20:45.90
Nick Unkefer Granville -2:08.50 19:19.20 21:27.70
Caleb Cripe Wester. North -1:38.30 19:20.60 20:58.90
Anthony Rogner Watterson -2:58.20 19:22.00 22:20.20
Carter Hudnell Wester. North -4:10.70 19:22.10 23:32.80
Logan Gaib Fairfield Union -1:45.50 19:22.70 21:08.20
Samuel Carr Logan -42.30 19:23.70 20:06.00
Mitchel Hoover St. Clairsville -1:55.90 19:26.30 21:22.20
Jacques Gauthier Wester. North -23.60 19:27.20 19:50.80
Emma Hoellrich Fairfield Union -35.40 19:27.60 20:03.00
Greg Gillen Mount Vernon -54.30 19:28.40 20:22.70
Collin Kelly Parkersburg -21.90 19:29.70 19:51.60
Ethan Roberts Lan. Fair Chr. -1:34.50 19:30.20 21:04.70
Zach Ferenchak Central Crossing -28.00 19:32.50 20:00.50
Logan Kazmierczak Westfall -1:14.60 19:33.30 20:47.90
Noah Parker Parkersburg -1:59.10 19:33.40 21:32.50
Tyler Sharpe Sheridan -1:43.30 19:34.60 21:17.90
Cam Vayansky Heb. Lakewood -1:15.10 19:36.80 20:51.90
Luke Custer Lan. Fair Chr. -15.40 19:40.60 19:56.00
Colton Barnes Warren +32.10 20:15.90 19:43.80
Caedon Ly Logan -42.30 19:43.80 20:26.10
Tyler Clark Mount Gilead -3:49.90 19:49.50 23:39.40
Jim Ryan Watterson -53.20 19:50.70 20:43.90
Adam Holbrook Lan. Fair Chr. -6:37.80 19:54.00 26:31.80
Matthew Colgan New Albany +2:31.80 22:28.40 19:56.60
Michael Smith Hartley +2:01.20 21:59.10 19:57.90
James Mehlman Martins Ferry -45.30 19:58.70 20:44.00
Anna Foster Sheridan -2:38.30 19:59.30 22:37.60
Ethan Weaver Parkersburg -2:45.80 19:59.40 22:45.20
Thomas Singhaus Martins Ferry -1:56.70 20:02.70 21:59.40
James Doty Circleville -3:53.20 20:03.00 23:56.20
Blake Smith Sheridan -3:53.20 20:05.70 23:58.90
Chloe Cortes Watkins Memorial -5:54.90 20:06.40 26:01.30
Isaac Berry Fairfield Union +53.60 21:01.20 20:07.60
John Diehl Marietta -2:13.30 20:09.80 22:23.10
Timmy Bunnell Vinton County -35.70 20:11.00 20:46.70
Taylor Fogle Martins Ferry -37.90 20:13.40 20:51.30
Nathaniel Rogers Zane Trace +3:17.50 23:33.10 20:15.60
Samantha Hyme Watkins Memorial +1:21.00 21:38.30 20:17.30
Coleten Shafer Newark -2:15.20 20:19.40 22:34.60
Jansen Didomenico Lancaster -1:24.20 20:19.70 21:43.90
Zachary McCarty Lan. Fair Chr. -29.30 20:20.30 20:49.60
Sean Noll Sheridan -32.30 20:21.30 20:53.60
Trevor Stephens Athens -1:04.10 20:23.30 21:27.40
Caleb Bradford Lancaster -37.20 20:25.60 21:02.80
Mark Heflin Athens -2.90 20:28.60 20:31.50
Marissa Smith Logan -13.80 20:31.00 20:44.80
Adam Dietz Maysville -3:06.40 20:35.00 23:41.40
Michael Dewberry New Albany -48.70 20:36.00 21:24.70
Isabelle Hoover Fairfield Union -2:27.10 20:38.90 23:06.00
Aaron Dickens Parkersburg -29.40 20:42.10 21:11.50
Ivy Beam Zane Trace -2:22.50 20:50.80 23:13.30
Will Couch Parkersburg -2:50.60 20:51.10 23:41.70
Raechal Schoenberger Watkins Memorial +2.10 20:54.00 20:51.90
Jack Priest New Albany +1:11.50 22:05.30 20:53.80
Brandon Walchle Mount Vernon -3:01.10 21:00.50 24:01.60
Lucas Hunter Rac. Southern -38.20 21:02.70 21:40.90
Joel Corbitt Warren -2:32.20 21:04.80 23:37.00
Austin Spencer Piketon -1:03.30 21:07.30 22:10.60
Makinley Trapp Westfall -1:33.90 21:09.70 22:43.60
Donte Vincenzo St. Clairsville -1:05.10 21:10.70 22:15.80
Yu-shiang Jeng Athens -36.30 21:11.00 21:47.30
Dylan King Watkins Memorial -4:34.30 21:12.40 25:46.70
Eric Carney Parkersburg -3:37.70 21:13.60 24:51.30
Rebekah Shoup Athens -27.80 21:14.50 21:42.30
Claire McCandlish Lancaster +3.40 21:19.10 21:15.70
Noah Shremshock Mount Vernon -1:52.20 21:20.60 23:12.80
Alex Diehl Mount Vernon +40.30 22:10.00 21:29.70
Hannah Bush Mount Gilead -1:20.10 21:32.30 22:52.40
Kieran Sutliff Granville -8:51.50 21:35.10 30:26.60
Michael Lockwood Lan. Fair Chr. -53.70 21:36.80 22:30.50
Josh Nicholson Lancaster -2:22.60 21:38.90 24:01.50
Heather Walker Lancaster +37.50 22:18.50 21:41.00
Spencer Benson Cardington-Lincoln -2:09.00 21:43.40 23:52.40
Jon Hurst Piketon -13.60 21:48.30 22:01.90
Taylor Given New Albany -35.30 21:48.70 22:24.00
Emma Reilly Lancaster -2:42.10 21:50.40 24:32.50
Kelsey Fleming Parkersburg -3:12.70 21:54.70 25:07.40
Emily Dennis Logan -2:25.80 21:56.00 24:21.80
Kelsi Connors Watterson -1:49.80 22:04.30 23:54.10
Lindsey Finnegan Watkins Memorial -2:40.50 22:05.00 24:45.50
Darcy Picker Mount Gilead -54.40 22:06.70 23:01.10
Sam Rees Hartley -2:44.00 22:07.80 24:51.80
Madison Eggleston Logan -1:05.30 22:09.90 23:15.20
Derek Demel Athens +25.90 22:36.20 22:10.30
Randall Starling Circleville -2:57.40 22:18.50 25:15.90
Kate Golian New Albany -3:06.20 22:23.60 25:29.80
Jenna Hyman Granville -1:28.50 22:26.40 23:54.90
Kaeley Clonch Sheridan -3:57.10 22:34.30 26:31.40
Jeremy Dech Central Crossing +54.30 23:34.90 22:40.60
Andrew Klintworth Waterford -1:50.10 22:42.60 24:32.70
Jackson Lybarger Martins Ferry -1:31.00 22:43.40 24:14.40
Hayley Woosley Watkins Memorial -2:27.10 22:48.80 25:15.90
McKenzie Ray Zane Trace -3:04.90 22:58.40 26:03.30
Brendan Weise Watkins Memorial -8:05.40 23:01.70 31:07.10
Kathryn McGinnis Heb. Lakewood +37.80 23:40.30 23:02.50
Katy Keys Lan. Fair Chr. -56.30 23:02.80 23:59.10
Katie Farinash Parkersburg -10.10 23:05.10 23:15.20
Ruthie Wyant Piketon -34.90 23:07.30 23:42.20
Meredith Suhr Athens -3:32.90 23:10.30 26:43.20
Gillian Thomas Parkersburg -1:30.10 23:12.70 24:42.80
William Christian Warren -2:59.70 23:13.10 26:12.80
Arissa Long Vinton County -4:36.00 23:15.50 27:51.50
Chrystina Watson Sheridan -2:03.10 23:17.70 25:20.80
Zev Winter Oakstone Academy -18.20 23:24.00 23:42.20
Caitlyn Burroughs Warren -3:19.20 23:25.10 26:44.30
Kaylee Pate Warren -41.60 23:28.70 24:10.30
Greg Potts Parkersburg +34.20 24:03.20 23:29.00
Ann Shelby Zane Trace +38.90 24:10.20 23:31.30
Lauren Miller Watkins Memorial -45.00 23:34.30 24:19.30
Alicia McElwee Cardington-Lincoln -1:39.00 23:38.60 25:17.60
Madison Lyle Martins Ferry +45.40 24:25.90 23:40.50
Kyle Ferguson London -2:37.40 23:42.00 26:19.40
Mas Tirtonegoro-potts Westfall +31.40 24:16.30 23:44.90
Andrew Ralston New Albany -1:39.40 23:55.70 25:35.10
Cameron Cantley Warren +59.70 25:07.10 24:07.40
Wes Cox Parkersburg +1:09.20 25:25.90 24:16.70
Lexie Robinson St. Clairsville -4:09.00 24:21.80 28:30.80
Nick Novotny Heb. Lakewood +35.50 25:02.00 24:26.50
Kendall Black Fairfield Union -1:04.20 24:29.80 25:34.00
Parrick Killeen Fairfield Union -1:27.70 24:29.80 25:57.50
Hannah Crone Marietta -1:27.70 24:32.00 25:59.70
Langwasser Megan Sheridan -4:00.20 24:37.50 28:37.70
Karli Schumacher New Albany +1:08.70 25:48.60 24:39.90
Viola Sullivan Marietta -1.80 24:43.70 24:45.50
Jessica Shook Cardington-Lincoln -4:13.00 24:49.30 29:02.30
Loren Klein New Albany -1:38.40 24:49.60 26:28.00
Madison Gladman Watkins Memorial -1:53.40 24:51.20 26:44.60
Julia Skrabak St. Clairsville -1:12.10 24:52.30 26:04.40
Sarah Meek Parkersburg -4:24.40 24:54.20 29:18.60
Jamie Fogle Martins Ferry +37.60 25:32.80 24:55.20
Ryann Ramey Vinton County -10.50 24:56.80 25:07.30
Gary Anderegg Claymont -1:48.30 24:58.60 26:46.90
Emilee Becker Newark -1:32.60 24:59.90 26:32.50
Allison Morris Parkersburg -42.60 25:03.90 25:46.50
Nora Torbett Marietta +32.50 25:38.40 25:05.90
Natalie Rose Fairfield Union -4:40.10 25:09.10 29:49.20
Mia Hoffman Wester. North -3:20.50 25:11.60 28:32.10
Sarah Heidelbach St. Clairsville -1:05.10 25:16.00 26:21.10
Lauren Trace Mount Vernon -3:36.60 25:17.60 28:54.20
Lauren Stewart Claymont -1:28.40 25:20.00 26:48.40
Emily Moore Westfall -34.60 25:27.90 26:02.50
Lyna Freeman Bloom-Carroll -20.00 25:28.20 25:48.20
Adele Bergmeier Athens -26.20 25:28.20 25:54.40
Abigail Bressoud Watterson -24.70 25:28.90 25:53.60
Grace Murnane Hartley -5:55.70 25:28.90 31:24.60
Claire Wetta Wester. North +53.60 26:28.10 25:34.50
Angel Ervin Claymont -1:25.00 25:43.40 27:08.40
Christina Chen New Albany -1:00.80 25:48.60 26:49.40
Emma Dearth Amanda-Clearcreek +10.60 26:08.50 25:57.90
Brandy Slone Wester. North -5:05.50 26:10.30 31:15.80
Bailey Shafer Cardington-Lincoln +1:40.60 27:52.40 26:11.80
Zach Barrett Oakstone Academy +21.40 26:38.20 26:16.80
Alison Sommer Hartley +2:07.70 28:31.50 26:23.80
Tucker Hampton Marietta +2:37.60 29:03.50 26:25.90
Ellie Swan Granville -1:51.40 26:33.60 28:25.00
Kylie Mathews London -4:35.00 26:36.30 31:11.30
Emily Waters Mount Vernon -5:33.20 26:45.10 32:18.30
Makenzie Blue Westfall -1:52.00 27:00.60 28:52.60
Katelyn Chesser Warren -5:17.20 27:03.00 32:20.20
Emma Cramer Heb. Lakewood -38.00 27:10.70 27:48.70
Madeline Walker Granville -47.90 27:13.30 28:01.20
Larissa Zimmerman Circleville +7.70 27:43.90 27:36.20
Skylar Champ Logan -31.00 27:39.40 28:10.40
Madelyn Castle Franklin Hts. -1:23.70 27:49.40 29:13.10
Emma Graham Bloom-Carroll +1.40 27:57.20 27:55.80
Sydney Brooks Logan -3:52.50 27:59.50 31:52.00
Lauklen Cale Parkersburg -24.70 28:06.00 28:30.70
Kira Mcmanis Vinton County -1:07.10 28:23.90 29:31.00
Courtney Bailey Fairfield Union -4:14.90 28:32.20 32:47.10
Jennifer Noonan Mount Vernon -35.50 28:37.60 29:13.10
Amanda Miglin Mount Vernon -3:54.80 28:40.40 32:35.20
Joce Palombo Amanda-Clearcreek -6.20 28:42.20 28:48.40
Matthew Martin Marietta -27.20 29:24.80 29:52.00
Abbi Eckman Watkins Memorial +14.90 29:48.40 29:33.50
Ellie Broeren Mount Vernon -3:36.30 30:21.30 33:57.60
Abby Lescalleet Watkins Memorial -1:05.20 30:24.50 31:29.70
Natalie Detwiler Bloom-Carroll +35.10 31:05.60 30:30.50
Kylie Bell Maysville +1:37.10 35:31.00 33:53.90
Megan Blair Marietta +1:43.40 35:40.00 33:56.60
Kamryn Russell New Albany -1:35.80 36:08.70 37:44.50
Jack Roy Oakstone Academy +1:40.30 39:39.40 37:59.10